User: anonymous   Login
Location: Ostrava
(49.8330°N, 18.2830°E)
Time: 03:39:04
(UTC+02:00)
Language:

Cosmos 1766 - Orbit

View from above orbital plane
View from above orbital plane
View from above satellite
View from above satellite

Ground track
Ground track

The orbit data is extracted from the following two-line orbital elements,

1 16881U 86055A   16211.89090076 +.00001034 +00000-0 +62154-4 0  9998
2 16881 082.5147 338.8133 0017687 130.2170 230.0610 15.09648129611640
Epoch (UTC): 29 July 2016 21:22:53
Eccentricity: 0.0017687
inclination: 82.5147°
perigee height: 525 km
apogee height: 549 km
right ascension of ascending node: 338.8133°
argument of perigee: 130.2170°
revolutions per day: 15.09648129
mean anomaly at epoch: 230.0610°
orbit number at epoch: 61164

The dashed part of the orbit path shows where the satellite is in the earth's shadow,  

DLR